Middletown, RI

10:01 AM EDT on August 30, 2016 (GMT -0400)
Newport State

Weather History for KUUU - May, 2013

Change the Weather History Date:

Sunday, May 19, 2013

  Actual Average Record
Temperature  
Mean Temperature 56 °F -  
Max Temperature 64 °F 63 °F 79 °F (1960)
Min Temperature 48 °F 47 °F 30 °F (1991)
Degree Days  
Heating Degree Days 10    
Growing Degree Days 6 (Base 50)    
Moisture  
Dew Point 51 °F    
Average Humidity 87    
Maximum Humidity 100    
Minimum Humidity 60    
Precipitation  
Precipitation 0.15 in - - ()
Sea Level Pressure  
Sea Level Pressure 30.30 in    
Wind  
Wind Speed 4 mph (SSE)    
Max Wind Speed 13 mph    
Max Gust Speed -    
Visibility 6 miles    
Events Rain    
Averages and records for this station are not official NWS values.
T = Trace of Precipitation, MM = Missing Value Source: NWS Daily Summary

Daily Weather History Graph

Daily Weather History Graph

Search for Another Location

Airport or City:

Trip Planner

Search our weather history database for the weather conditions in past years. The results will help you decide how hot, cold, wet, or windy it might be!

Date:

Astronomy

May. 19, 2013 Rise Set
Actual Time 5:22 AM EDT 8:01 PM EDT
Civil Twilight 4:50 AM EDT 8:33 PM EDT
Nautical Twilight 4:09 AM EDT 9:14 PM EDT
Astronomical Twilight 3:24 AM EDT 9:59 PM EDT
Moon 1:58 PM EDT (5/19) 1:48 AM EDT (5/19)
Length of Visible Light 15h 43m
Length of Day
14h 39m
Waxing Gibbous, 65% of the Moon is Illuminated
May 19
Waxing Gibbous
May 25
Full
May 31
Last Quarter
Jun 8
New
Jun 16
First Quarter

Hourly Weather History & Observations

Time (EDT) Temp. Dew Point Humidity Pressure Visibility Wind Dir Wind Speed Gust Speed Precip Events Conditions
12:53 AM 53.1 °F 50.0 °F 89% 30.31 in 10.0 mi Calm Calm - N/A   Clear
1:53 AM 53.1 °F 46.0 °F 77% 30.31 in 10.0 mi Calm Calm - N/A   Clear
2:53 AM 53.1 °F 45.0 °F 74% 30.31 in 10.0 mi Calm Calm - N/A   Clear
3:53 AM 50.0 °F 45.0 °F 83% 30.31 in 10.0 mi Calm Calm - N/A   Clear
4:53 AM 50.0 °F 46.0 °F 86% 30.32 in 10.0 mi Calm Calm - N/A   Clear
5:53 AM 48.9 °F 46.0 °F 90% 30.33 in 10.0 mi Calm Calm - N/A   Clear
6:53 AM 54.0 °F 48.9 °F 83% 30.35 in 10.0 mi Calm Calm - N/A   Clear
8:53 AM 60.1 °F 46.9 °F 62% 30.36 in 10.0 mi South 6.9 mph - N/A   Clear
9:53 AM 62.1 °F 48.9 °F 62% 30.36 in 10.0 mi South 8.1 mph - N/A   Partly Cloudy
10:53 AM 63.0 °F 48.9 °F 60% 30.36 in 10.0 mi SSW 5.8 mph - N/A   Clear
11:53 AM 63.0 °F 51.1 °F 65% 30.36 in 10.0 mi South 8.1 mph - N/A   Mostly Cloudy
12:53 PM 63.0 °F 50.0 °F 63% 30.35 in 10.0 mi SSE 12.7 mph - N/A   Scattered Clouds
1:53 PM 63.0 °F 51.1 °F 65% 30.33 in 10.0 mi South 10.4 mph - N/A   Scattered Clouds
4:53 PM 55.9 °F 51.1 °F 84% 30.31 in 9.0 mi South 8.1 mph - 0.02 in Rain Light Rain
5:53 PM 55.0 °F 52.0 °F 89% 30.31 in 7.0 mi South 6.9 mph - 0.00 in Rain Light Rain
6:28 PM 53.6 °F 51.8 °F 94% 30.31 in 6.0 mi South 6.9 mph - 0.02 in Rain Light Rain
6:41 PM 53.6 °F 51.8 °F 94% 30.30 in 4.0 mi SSE 6.9 mph - 0.02 in Rain Light Rain
6:53 PM 54.0 °F 53.1 °F 97% 30.30 in 3.0 mi South 6.9 mph - 0.03 in Rain Light Rain
7:01 PM 53.6 °F 53.6 °F 100% 30.30 in 3.0 mi South 8.1 mph - 0.00 in Rain Light Rain
7:14 PM 53.6 °F 53.6 °F 100% 30.29 in 3.0 mi South 8.1 mph - 0.01 in Rain Light Rain
7:23 PM 53.6 °F 53.6 °F 100% 30.29 in 2.5 mi SSE 6.9 mph - 0.02 in Rain Light Rain
7:30 PM 53.6 °F 53.6 °F 100% 30.29 in 4.0 mi SSE 6.9 mph - 0.02 in Rain Light Rain
7:53 PM 54.0 °F 53.1 °F 97% 30.30 in 6.0 mi SSE 9.2 mph - 0.02 in Rain Light Rain
8:36 PM 53.6 °F 53.6 °F 100% 30.29 in 6.0 mi SSE 8.1 mph - 0.00 in Rain Light Rain
8:53 PM 54.0 °F 53.1 °F 97% 30.28 in 9.0 mi SE 6.9 mph - 0.00 in   Overcast
9:37 PM 55.4 °F 53.6 °F 94% 30.28 in 9.0 mi SE 5.8 mph - N/A   Overcast
9:45 PM 53.6 °F 53.6 °F 100% 30.28 in 2.5 mi SE 5.8 mph - 0.00 in Rain Light Rain
9:53 PM 55.0 °F 53.1 °F 93% 30.27 in 3.0 mi SE 6.9 mph - 0.00 in Rain Light Rain
10:07 PM 55.4 °F 53.6 °F 94% 30.27 in 4.0 mi SE 6.9 mph - 0.00 in Rain Light Rain
10:22 PM 55.4 °F 53.6 °F 94% 30.26 in 2.5 mi SE 8.1 mph - 0.00 in Rain Light Rain
10:39 PM 55.4 °F 53.6 °F 94% 30.26 in 1.8 mi SE 6.9 mph - 0.02 in Rain Light Rain
10:53 PM 55.0 °F 54.0 °F 96% 30.25 in 2.0 mi SSE 6.9 mph - 0.03 in Rain Light Rain
11:01 PM 55.4 °F 53.6 °F 94% 30.25 in 1.8 mi SE 6.9 mph - 0.01 in Rain Light Rain
11:25 PM 55.4 °F 53.6 °F 94% 30.25 in 2.0 mi SSE 10.4 mph - 0.04 in Rain Rain
11:53 PM 55.0 °F 54.0 °F 96% 30.23 in 2.5 mi SSE 9.2 mph - 0.05 in Rain Light Rain